SKYNET 4E

Last updated on Fri Apr 12 2024 01:02:36 GMT+0100 (British Summer Time)

1 25639U 99009B 24102.06855021 -.00000042 00000+0 00000+0 0 9993 2 25639 11.5991 13.4278 0004319 32.9494 176.8073 1.00273706 43393
UTC large
Height (km)
Speed (km/s)
/
Latitude / Longitude
Inclination (degrees)
Orbital Period (minutes)
Azimuth
Elevation
Range (km)
Doppler Factor

Next 0 passes for location: London (51.5072 / 0.1276)

Sorry there are no passes over London.